Location: Easthampton
(42.2676°N, 72.6690°W)
Time: 08:36:56
(UTC+00:00)

Gurwin Techsat 1B - Pass Details

Date: 06 April 2023
Orbit: 811 x 813 km, 98.9° (Epoch: 02 June)

Event Time Altitude Azimuth Distance (km) Brightness Sun altitude
Rises 06:50:49 0° 26° (NNE) 3,347 12.8 -34.5°
Reaches altitude 10° 06:53:33 10° 38° (NE) 2,410 11.9 -34.2°
Maximum altitude 06:57:59 26° 95° (E) 1,548 10.3 -33.7°
Enters shadow 06:58:05 26° 97° (E) 1,548 10.3 -33.7°
